Location: Newark
(40.5782°N, 9.2582°E)
Time: 11:37:36
(UTC+00:00)

LightSail 2 - Visible Passes

Search period start: 20 September 2019 00:00
Search period end: 30 September 2019 00:00
Orbit: 700 x 732 km, 24.0° (Epoch: 19 September)

Date Brightness Start Highest point End Pass type
(mag) Time Alt. Az. Time Alt. Az. Time Alt. Az.
23 Sep 7.4 04:37:10 10° SSW 04:38:42 11° S 04:40:15 10° SSE visible
24 Sep 7.4 03:40:49 10° S 03:41:44 10° S 03:42:40 10° SSE visible
25 Sep 7.4 04:27:43 10° SSW 04:29:24 12° S 04:31:05 10° SSE visible
26 Sep 7.3 03:31:45 11° S 03:32:25 12° S 03:34:05 10° SSE visible
27 Sep 7.4 04:19:06 10° SSW 04:20:04 10° S 04:21:02 10° S visible
28 Sep 7.4 03:23:29 11° S 03:23:29 11° S 03:24:38 10° SSE visible
